Погода в Александрии

Россия / Ставропольский край     45°05′29″N   43°14′39″E
темп.,
°C
ветер,
м/с
пор.,
м/с
влажн.,
%
обл.,
%
осадки,
мм/ч
давл.,
гПа
погр.,
м
25 октября, пн
пн2500:00+9с7978100 0.3 1019820
03:00+5ссз7989100 2.9 1022809
06:00+4сз5894100 3.7 1024659
09:00+4сз5992100 4.8 1027639
12:00+6зсз677899 0.3 1027929
15:00+8зсз6764100 0.6 10281234
18:00+7зсз476860 0.1 1030663
21:00+4зсз34745 0.1 103176
26 октября, вт
вт2600:00+3сз22755 0.0 103131
03:00+2ссв22755 0.0 103219
06:00+1ссв11655 0.0 103310
09:00+4всв225023 0.0 1034321
12:00+7св11435 0.0 10321126
15:00+8св22380 0.0 10311117
18:00+5всв34480 0.0 103268
21:00+3в36570 0.0 1032123
27 октября, ср
ср2700:00+2вюв36611 0.0 1032133
03:00+1вюв37660 0.0 1031150
06:000вюв49721 0.0 1031197
09:00+4юв611560 0.0 1031501
12:00+8вюв79420 0.0 1028805
15:00+9вюв79360 0.0 1027882
18:00+6вюв511510 0.0 1028306
21:00+4вюв513600 0.0 1027302
28 октября, чт
чт2800:00+3юв411760 0.0 1026261
03:00+2юв38900 0.0 1026175
06:00+1юв36940 0.0 1027119
09:00+6юв46800 0.0 1026292
12:00+11юв34590 0.0 1025640
15:00+12юв33510 0.0 1024792
18:00+9юв11670 0.0 102410
21:00+7ююз11740 0.0 102410
29 октября, пт
пт2900:00+6зсз11770 0.0 102410
03:00+5зсз2275100 0.0 102414
06:00+5зсз3374100 0.0 102532
09:00+8сз346152 0.0 1026232
12:00+12сз334747 0.0 1025788
15:00+13ссз33454 0.0 1024993
18:00+9с22632 0.0 102610
21:00+8с11710 0.0 102610